Вернуться в каталог

DELTA 1 DEB

АктивенLEO
NORAD 10752·DEBRIS·🇺🇸 United States

Запущен Jul 29, 1976 с Vandenberg Space Force Base

Loading…

Ближайшие Пролёты (ближайшие 24 часа)

TLE

СвежийSource: Space-Track

Эпоха: Sep 14, 2026, 05:57 UTC

1 10752U 76077AZ  26257.24860009 -.00002000  00000-0 -65758-2 0  9990
2 10752 101.7372 164.3072 0314753 164.9316 346.6735 12.83856024314779

Отслеживайте DELTA 1 DEB в реальном времени с AllMySat

Download on the App Store